De Queen, AR

6:00 PM CDT on August 31, 2016 (GMT -0500)
Helms Sevier County

Weather History for KDEQ - March, 2013

Change the Weather History Date:

Friday, March 8, 2013

  Actual Average Record
Temperature  
Mean Temperature 52 °F 51 °F  
Max Temperature 64 °F 64 °F 83 °F (1992)
Min Temperature 40 °F 38 °F 18 °F (1996)
Degree Days  
Heating Degree Days 13 14  
Month to date heating degree days 150 120  
Since 1 July heating degree days 2465 2611  
Cooling Degree Days 0 0  
Month to date cooling degree days 0 0  
Year to date cooling degree days 4 2  
Growing Degree Days 2 (Base 50)    
Moisture  
Dew Point 36 °F    
Average Humidity 54    
Maximum Humidity 73    
Minimum Humidity 34    
Precipitation  
Precipitation T in 0.12 in 5.98 in (1990)
Month to date precipitation T 0.79  
Year to date precipitation 3.96 7.79  
Snow  
Snow 0.00 in - - ()
Month to date snowfall 0.0  
Since 1 July snowfall 4.5  
Snow Depth 0.00 in    
Sea Level Pressure  
Sea Level Pressure 30.18 in    
Wind  
Wind Speed 7 mph (East)    
Max Wind Speed 15 mph    
Max Gust Speed 20 mph    
Visibility 10 miles    
Events Rain    
T = Trace of Precipitation, MM = Missing Value Source: NWS Daily Summary

Daily Weather History Graph

Daily Weather History Graph

Search for Another Location

Airport or City:

Trip Planner

Search our weather history database for the weather conditions in past years. The results will help you decide how hot, cold, wet, or windy it might be!

Date:

Astronomy

Mar. 08, 2013 Rise Set
Actual Time 6:37 AM CST 6:20 PM CST
Civil Twilight 6:12 AM CST 6:45 PM CST
Nautical Twilight 5:43 AM CST 7:13 PM CST
Astronomical Twilight 5:14 AM CST 7:43 PM CST
Moon 4:14 AM CST (3/8) 3:22 PM CST (3/8)
Length of Visible Light 12h 32m
Length of Day
11h 43m
Waning Crescent, 11% of the Moon is Illuminated
Mar 8
Waning Crescent
Mar 11
New
Mar 19
First Quarter
Mar 27
Full
Apr 2
Last Quarter

Hourly Weather History & Observations

Time (CST) Temp. Windchill Dew Point Humidity Pressure Visibility Wind Dir Wind Speed Gust Speed Precip Events Conditions
12:53 AM 43.0 °F 40.3 °F 33.1 °F 68% 30.21 in 10.0 mi NE 4.6 mph - N/A   Clear
1:53 AM 42.1 °F 39.2 °F 34.0 °F 73% 30.21 in 10.0 mi ENE 4.6 mph - N/A   Clear
2:53 AM 42.1 °F 39.2 °F 33.1 °F 70% 30.20 in 9.0 mi ENE 4.6 mph - N/A   Clear
3:53 AM 41.0 °F 37.1 °F 32.0 °F 70% 30.21 in 8.0 mi East 5.8 mph - N/A   Clear
4:53 AM 41.0 °F 38.0 °F 32.0 °F 70% 30.23 in 8.0 mi East 4.6 mph - N/A   Clear
5:53 AM 42.1 °F 36.6 °F 33.1 °F 70% 30.24 in 9.0 mi East 9.2 mph - N/A   Clear
6:53 AM 43.0 °F 38.8 °F 33.1 °F 68% 30.26 in 8.0 mi East 6.9 mph - N/A   Clear
7:53 AM 45.0 °F 40.6 °F 34.0 °F 65% 30.27 in 9.0 mi East 8.1 mph - N/A   Clear
8:53 AM 48.9 °F - 34.0 °F 56% 30.28 in 10.0 mi East 9.2 mph - N/A   Clear
9:53 AM 53.1 °F - 36.0 °F 52% 30.28 in 10.0 mi East 13.8 mph 20.7 mph N/A   Clear
10:53 AM 57.0 °F - 36.0 °F 45% 30.28 in 10.0 mi ESE 8.1 mph - N/A   Mostly Cloudy
11:53 AM 59.0 °F - 36.0 °F 42% 30.27 in 10.0 mi SE 9.2 mph - N/A   Overcast
12:53 PM 60.1 °F - 37.0 °F 42% 30.22 in 10.0 mi East 10.4 mph - N/A   Mostly Cloudy
1:53 PM 62.1 °F - 37.0 °F 39% 30.16 in 10.0 mi ESE 12.7 mph - N/A   Partly Cloudy
2:53 PM 63.0 °F - 37.0 °F 38% 30.14 in 10.0 mi East 9.2 mph - N/A   Scattered Clouds
3:53 PM 64.0 °F - 35.1 °F 34% 30.12 in 10.0 mi ESE 10.4 mph - N/A   Overcast
4:53 PM 63.0 °F - 34.0 °F 34% 30.11 in 10.0 mi ESE 8.1 mph - N/A   Clear
5:53 PM 62.1 °F - 34.0 °F 35% 30.11 in 10.0 mi ESE 5.8 mph - N/A   Overcast
6:53 PM 59.0 °F - 37.0 °F 44% 30.11 in 10.0 mi NE 4.6 mph - 0.00 in   Overcast
7:53 PM 57.9 °F - 39.9 °F 51% 30.10 in 10.0 mi East 5.8 mph - 0.00 in Rain Light Rain
8:53 PM 57.0 °F - 41.0 °F 55% 30.10 in 10.0 mi ENE 4.6 mph - 0.00 in   Mostly Cloudy
9:53 PM 57.9 °F - 39.9 °F 51% 30.09 in 10.0 mi East 3.5 mph - N/A   Overcast
10:53 PM 57.0 °F - 39.9 °F 53% 30.09 in 10.0 mi East 5.8 mph - N/A   Overcast
11:53 PM 57.9 °F - 37.9 °F 47% 30.07 in 10.0 mi East 6.9 mph - N/A   Overcast